Left ArrowRight Arrow

44.8408, -93.29828

Hourly Observations for June 30, 2017

Temp ( °F °C ) Dew Point ( °F °C ) Humidity (%) Winds ( mph kmh ) Pressure ( in mb ) Visibility ( mi km ) Precip ( " mm )
12:53 am 00:53 Partly Cloudy 69 20.6 61 16.1 76 76 WSW 3 6 29.79 1009 10 16 0.00 0.00
1:53 am 01:53 Partly Cloudy 68 20 61 16.1 78 78 Calm 29.79 1009 10 16 0.00 0.00
2:53 am 02:53 Partly Cloudy 67 19.4 61 16.1 81 81 WNW 3 6 29.76 1008 10 16 0.00 0.00
3:53 am 03:53 Partly Cloudy 67 19.4 61 16.1 81 81 W 3 6 29.77 1008 10 16 0.00 0.00
4:17 am 04:17 Mostly Cloudy 67 19.4 61 16.1 81 81 NNW 10 17 29.80 1009 10 16 0.00 0.00
4:53 am 04:53 Mostly Cloudy with Thunderstorms 64 17.8 58 14.4 81 81 NNE 15 24 29.82 1010 10 16 0.00 0.00
5:02 am 05:02 Mostly Cloudy 63 17.2 56 13.3 78 78 NNE 10 17 29.83 1010 10 16 0.00 0.00
5:53 am 05:53 Partly Cloudy 62 16.7 56 13.3 80 80 E 8 13 29.80 1009 10 16 0.00 0.00
6:53 am 06:53 Partly Cloudy 64 17.8 57 13.9 78 78 WNW 6 9 29.82 1010 10 16 0.00 0.00
7:53 am 07:53 Partly Cloudy 68 20 58 14.4 70 70 NNW 3 6 29.83 1010 10 16 0.00 0.00
8:53 am 08:53 Mostly Cloudy 68 20 57 13.9 68 68 NW 7 11 29.86 1011 10 16 0.00 0.00
9:53 am 09:53 Mostly Sunny 71 21.7 59 15 66 66 VRB 5 7 29.85 1011 10 16 0.00 0.00
10:53 am 10:53 Mostly Sunny 73 22.8 58 14.4 59 59 NW 6 9 29.85 1011 10 16 0.00 0.00
11:53 am 11:53 Partly Cloudy 75 23.9 59 15 58 58 W 9 15 29.84 1011 10 16 0.00 0.00
12:53 pm 12:53 Partly Cloudy 77 25 58 14.4 52 52 WNW 9 15 29.83 1010 10 16 0.00 0.00
1:53 pm 13:53 Partly Cloudy 78 25.6 58 14.4 50 50 NW 8 13 29.83 1010 10 16 0.00 0.00
2:53 pm 14:53 Partly Cloudy 79 26.1 56 13.3 45 45 NW 12 19 29.82 1010 10 16 0.00 0.00
3:51 pm 15:51 Mostly Cloudy with Nearby Thunderstorms 79 26 57 14 48 48 NNW 12 19 29.80 1009 10 16 0.00 0.00
3:53 pm 15:53 Mostly Cloudy with Nearby Thunderstorms 77 25 56 13.3 48 48 NNW 21 33 29.82 1010 10 16 0.00 0.00
4:05 pm 16:05 Mostly Cloudy with Thunderstorms 74 23.3 54 12.2 50 50 NW 17 28 29.80 1009 10 16 0.00 0.03
4:38 pm 16:38 Cloudy with Nearby Thunderstorms 67 19.4 59 15 76 76 WNW 6 9 29.85 1011 8 13 0.08 2.03
4:53 pm 16:53 Cloudy with Nearby Thunderstorms 67 19.4 59 15 76 76 NNW 3 6 29.83 1010 10 16 0.08 2.03
5:04 pm 17:04 Mostly Cloudy 68 20 60 15.6 76 76 Calm 29.85 1011 10 16 0.00 0.00
5:53 pm 17:53 Mostly Cloudy 70 21.1 61 16.1 73 73 Calm 29.84 1011 10 16 0.00 0.00
6:53 pm 18:53 Mostly Cloudy 71 21.7 58 14.4 63 63 SW 5 7 29.85 1011 10 16 0.00 0.00
7:53 pm 19:53 Mostly Cloudy 73 22.8 59 15 62 62 W 5 7 29.85 1011 10 16 0.00 0.00
8:53 pm 20:53 Mostly Cloudy 72 22.2 59 15 64 64 SSW 7 11 29.83 1010 10 16 0.00 0.00
9:53 pm 21:53 Mostly Cloudy 70 21.1 61 16.1 73 73 SW 6 9 29.84 1011 10 16 0.00 0.00
10:53 pm 22:53 Mostly Cloudy with Thunderstorms 69 20.6 60 15.6 73 73 WSW 6 9 29.85 1011 10 16 0.00 0.00
11:30 pm 23:30 Mostly Cloudy with Rain 68 20 61 16.1 78 78 WNW 8 13 29.85 1011 10 16 0.01 0.25
11:53 pm 23:53 Mostly Cloudy 68 20 61 16.1 78 78 WSW 8 13 29.85 1011 10 16 0.02 0.51

Powered by Vaisala Xweather